Flight Track Log - Related Links

Times and Time Zones

All times are in EDT time to prevent confusion due to time zone crossing. See the KAP46 flight status page for this flight to view local times or setup timezone preferences in your user account.

Time Position Orientation Groundspeed Altitude Reporting Facility
EDT Latitude Longitude Course Direction KTS MPH feet Rate Location/Type
Fri 01:15:55 PM 44.5728 -74.6869 167° South 151 174 5,500  Level Boston Center
Fri 01:16:55 PM 44.5275 -74.6589 156° South 164 189 5,800 450 Climbing Boston Center
Fri 01:17:55 PM 44.4861 -74.6400 162° South 164 189 6,400 600 Climbing Boston Center
Fri 01:18:55 PM 44.4489 -74.6211 160° South 154 177 7,000 550 Climbing Boston Center
Fri 01:19:55 PM 44.4097 -74.6022 161° South 149 171 7,500 300 Climbing Boston Center
Fri 01:20:55 PM 44.3664 -74.5775 158° South 149 171 7,600  Climbing Boston Center
Fri 01:21:00 PM 44.7867 -74.7622 167° South  Level FlightAware Approximate
Fri 01:21:55 PM 44.3189 -74.5553 161° South 167 192 7,500  Level Boston Center
Fri 01:22:55 PM 44.2758 -74.5278 155° Southeast 175 201 7,500  Level Boston Center
Fri 01:23:55 PM 44.2261 -74.5058 162° South 180 207 7,500  Level Boston Center
Fri 01:24:55 PM 44.1786 -74.4867 164° South 180 207 7,500  Level Boston Center
Fri 01:25:55 PM 44.1350 -74.4678 163° South 180 207 7,500 50 Level Boston Center
Fri 01:26:55 PM 44.0875 -74.4517 166° South 180 207 7,600  Climbing Boston Center
Fri 01:27:55 PM 44.0442 -74.4300 160° South 180 207 7,500 -50 Descending Boston Center
Fri 01:28:55 PM 43.9986 -74.4056 159° South 180 207 7,500  Level Boston Center
Fri 01:29:55 PM 43.9553 -74.3839 160° South 180 207 7,500 50 Level Boston Center
Fri 01:30:55 PM 43.9075 -74.3650 164° South 175 201 7,600 250 Climbing Boston Center
Fri 01:31:55 PM 43.8661 -74.3636 179° South 169 194 8,000 -50 Climbing Boston Center
Fri 01:32:55 PM 43.8203 -74.3478 166° South 169 194 7,500 -450 Descending Boston Center
Fri 01:33:55 PM 43.7708 -74.3175 156° South 176 203 7,100 -350 Descending Boston Center
Fri 01:34:55 PM 43.7278 -74.2817 149° Southeast 181 208 6,800 -250 Descending Boston Center
Fri 01:35:55 PM 43.6867 -74.2489 150° Southeast 176 203 6,600 -200 Descending Boston Center
Fri 01:36:55 PM 43.6431 -74.2275 160° South 176 203 6,400 -200 Descending Boston Center
Fri 01:37:55 PM 43.5956 -74.2061 162° South 170 196 6,200 -189 Descending Boston Center
Fri 01:38:30 PM 43.5644 -74.1964 167° South 168 193 6,100 -200 Descending Boston Center
Fri 01:39:55 PM 43.5044 -74.1633 158° South 170 196 5,800 -180 Descending Boston Center
Fri 01:40:43 PM 43.4650 -74.1478 164° South 174 200 5,700 -117 Descending Boston Center
Fri 01:41:38 PM 43.4236 -74.1267 160° South 172 198 5,600 -52 Descending Boston Center
Fri 01:42:39 PM 43.3783 -74.1025 159° South 164 189 5,600  Level Boston Center
Fri 01:43:39 PM 43.3347 -74.0842 163° South 169 194 5,600  Level Boston Center
Fri 01:44:40 PM 43.2892 -74.0603 159° South 169 194 5,600  Level Boston Center
Fri 01:45:41 PM 43.2478 -74.0450 165° South 162 186 5,600  Level Boston Center
Fri 01:46:54 PM 43.1939 -74.0236 164° South 162 186 5,600  Level Boston Center
Fri 01:47:37 PM 43.1628 -74.0114 164° South 163 188 5,600 -99 Level Boston Center
Fri 01:48:55 PM 43.1089 -73.9928 166° South 165 190 5,400 -217 Descending Boston Center
Fri 01:49:55 PM 43.0528 -73.9800 171° South 170 196 5,100 -300 Descending Boston Center
Fri 01:50:55 PM 43.0092 -73.9706 171° South 185 213 4,800 -400 Descending Boston Center
Fri 01:51:55 PM 42.9572 -73.9578 170° South 179 206 4,300 -400 Descending Boston Center
Fri 01:52:55 PM 42.9094 -73.9453 169° South 185 213 4,000 -339 Descending Boston Center
Fri 01:53:59 PM 42.8531 -73.9411 177° South 177 204 3,600 -224 Descending Boston Center
Fri 01:54:42 PM 42.8219 -73.9403 179° South 166 191 3,600 -50 Level Boston Center
Fri 01:56:00 PM 42.7636 -73.9389 179° South 159 183 3,500  Descending Boston Center
Fri 01:56:49 PM 42.7261 -73.9436 185° South 160 184 3,600 49 Climbing Boston Center
Fri 01:58:02 PM 42.6739 -73.9453 181° South 148 170 3,600  Level Boston Center
Fri 01:59:03 PM 42.6342 -73.9442 179° South 139 160 3,600  Level Boston Center
Fri 02:00:03 PM 42.6011 -73.9294 162° South 144 166 3,600  Level Boston Center
Fri 02:01:04 PM 42.6039 -73.8758 86° East 137 158 3,600 -344 Level Boston Center
Fri 02:02:05 PM 42.6108 -73.8167 81° East 162 186 2,900 -655 Descending Boston Center
Fri 02:02:54 PM 42.6422 -73.8033 17° North 159 183 2,400 -699 Descending Boston Center
Fri 02:03:48 PM 42.6756 -73.8042 359° North 126 145 1,700 -730 Descending Boston Center
Fri 02:04:49 PM 42.7069 -73.8047 359° North 111 128 1,000 -689 Descending Boston Center
Fri 02:06:00 PM 42.7333 -73.8000 44° Northeast  Level FlightAware Approximate
Fri 02:13:00 PM 42.7491 -73.8020 44° Northeast  Level Estimated
Fri 02:14:00 PM 42.7491 -73.8020 44° Northeast  Level Estimated
Fri 02:15:00 PM 42.7491 -73.8020 44° Northeast  Level Estimated
Fri 02:16:00 PM 42.7491 -73.8020 44° Northeast  Level Estimated

Login

Don't have an account? Register now (free) for customized features, flight alerts, and more!